User: anonymous   Login
Location: Chatham
(39.6760°N, 89.7040°W)
Time: 05:38:42
(UTC-05:00)
Language:

NOSS 3-1 (C) - Orbit

View from above orbital plane
View from above orbital plane
View from above satellite
View from above satellite

Ground track
Ground track

The orbit data is extracted from the following two-line orbital elements,

1 26907U 01040C   16136.67041576 0.00000010  00000-0  12948-4 0    04
2 26907  63.4198 324.3225 0334000 358.5333   1.4667 13.41253283    04
Epoch (UTC): 15 May 2016 16:05:23
Eccentricity: 0.0334000
inclination: 63.4198°
perigee height: 854 km
apogee height: 1354 km
right ascension of ascending node: 324.3225°
argument of perigee: 358.5333°
revolutions per day: 13.41253283
mean anomaly at epoch: 1.4667°
orbit number at epoch: 0

The dashed part of the orbit path shows where the satellite is in the earth's shadow,  

DLR